STARLINK-34036 (63945 NORAD) Tracking and Keplerian Element Data

This shows tracking and keplerian element data for the satellite.

Feedback or suggestion? Click here.




ElementValue
Catalog63945
NameSTARLINK-34036
Epoch Orbit3440
Epoch Day352.60468825
Epoch Year2025
RAAN119.0251
Inclination70.0015
Eccentricity0.000286
Argument of Perigee273.3346
Mean Anonmoly86.7486
Mean Motion14.98325708
Decay Rate-9E-07
L11 63945U 25098V 25352.60468825 -.00000090 00000+0 23008-6 0 9995
L22 63945 70.0015 119.0251 0002860 273.3346 86.7486 14.98325708 34402



Live tracking and technical data element details for STARLINK-34036 (NORAD 63945). STARLINK-34036 can be tracked NOW for your location showing map with azimuth and elevation plus other details from your city location.







IsCatalogInMostPopularTable: catalog: 63945, numindb: 3
Update: records affected: 1



GetName: 63945 STARLINK-34036

Hit Count: updated at: Tue, 10 Feb 2026 02:19:58 GMT